Location: Follega
(52.8850°N, 5.7362°E)
Time: 00:45:57
(UTC+00:00)

Cosmos 2297 Rocket - Pass Details

Date: 03 October 2020
Orbit: 838 x 845 km, 71.0° (Epoch: 22 October)

Event Time Altitude Azimuth Distance (km) Brightness Sun altitude
Rises 22:18:16 0° 328° (NNW) 3,417 6.2 -39.6°
Reaches altitude 10° 22:20:43 10° 328° (NNW) 2,479 5.3 -39.7°
Enters shadow 22:22:53 24° 329° (NNW) 1,682 4.2 -39.8°
